User: anonymous   Login
Location: Berlin
(38.3226°N, 75.2177°W)
Time: 01:11:10
(UTC+00:00)
Language:

Cosmos 1269 Rocket - Orbit

View from above orbital plane
View from above orbital plane
View from above satellite
View from above satellite

Ground track
Ground track

The orbit data is extracted from the following two-line orbital elements,

1 12443U 81041B   21021.74623363 -.00000003  00000-0  81060-5 0  9992
2 12443  74.0551 281.5327 0003413  47.5552 312.5888 14.34747227 76554
Epoch (UTC): 21 January 2021 17:54:34
Eccentricity: 0.0003413
inclination: 74.0551°
perigee height: 773 km
apogee height: 778 km
right ascension of ascending node: 281.5327°
argument of perigee: 47.5552°
revolutions per day: 14.34747227
mean anomaly at epoch: 312.5888°
orbit number at epoch: 7655

The dashed part of the orbit path shows where the satellite is in the earth's shadow,  

DLR